Tracking 30995 objects as of 5-Jul-2025
HD Live streaming from Space Station
objects crossing your sky now

NOAA 16 DEB

Track NOAA 16 DEB now!
10-day predictions


NORAD ID: 41398
Int'l Code: 2000-055KB
Perigee: 772.5 km
Apogee: 797.6 km
Inclination: 98.8 °
Period: 100.4 minutes
Semi major axis: 7156 km
RCS: Unknown
Launch date: September 21, 2000
Source: United States (US)
Launch site: AIR FORCE WESTERN TEST RANGE (AFWTR)

Note: This is SATELLITE DEBRIS
Your satellite tracking list
STARLINK-5633
Track 1 satellite(s)




NASA's NSSDC Master Catalog

Two Line Element Set (TLE):
1 41398U 00055KB  25186.56912054  .00004068  00000-0  14661-2 0  9997
2 41398  98.8075 296.9529 0017513 158.0988 202.0948 14.34144403484494
Source of the keplerian elements: AFSPC